QPF
0.00 0.00 0.00 0.00 0.01 0.00 0.00 0.01 0.01 0.01 0.01 0.01 0.01 0.01 0.01 0.01 0.01 0.01 0.01 0.01 0.01 0.01 0.02 0.02 0.02 0.03 0.05 0.05 0.04 0.04 0.04 0.05 0.05 0.02 0.03 0.03 0.01 0.01 0.01 0.02 0.07 0.12 0.04
0.00 0.00 0.00 0.00 0.01 0.00 0.00 0.00 0.01 0.01 0.01 0.01 0.01 0.01 0.01 0.01 0.01 0.01 0.01 0.01 0.01 0.01 0.01 0.01 0.01 0.02 0.04 0.05 0.05 0.05 0.03 0.03 0.04 0.03 0.04 0.04 0.02 0.01 0.01 0.01 0.06 0.09 0.03
0.00 0.00 0.00 0.00 0.00 0.00 0.00 0.00 0.00 0.00 0.01 0.01 0.01 0.01 0.01 0.01 0.01 0.01 0.01 0.01 0.01 0.01 0.00 0.00 0.01 0.01 0.03 0.04 0.04 0.04 0.03 0.02 0.03 0.04 0.08 0.17 0.09 0.02 0.01 0.01 0.01 0.01 0.01
0.00 0.00 0.00 0.00 0.01 0.00 0.00 0.01 0.01 0.01 0.01 0.01 0.01 0.01 0.01 0.00 0.00 0.00 0.00 0.00 0.00 0.00 0.00 0.00 0.00 0.01 0.02 0.03 0.03 0.03 0.03 0.03 0.03 0.05 0.13 0.22 0.17 0.05 0.02 0.01 0.02 0.02 0.02
0.00 0.00 0.00 0.00 0.00 0.01 0.01 0.02 0.02 0.01 0.01 0.01 0.01 0.01 0.00 0.00 0.00 0.01 0.00 0.00 0.00 0.00 0.00 0.00 0.00 0.00 0.01 0.02 0.02 0.02 0.02 0.02 0.02 0.07 0.13 0.19 0.21 0.09 0.04 0.02 0.03 0.02 0.02
0.00 0.00 0.00 0.00 0.00 0.01 0.01 0.03 0.03 0.02 0.02 0.02 0.01 0.00 0.00 0.00 0.01 0.01 0.01 0.01 0.01 0.00 0.00 0.00 0.01 0.01 0.01 0.02 0.02 0.02 0.02 0.03 0.04 0.10 0.16 0.21 0.23 0.11 0.05 0.03 0.03 0.02 0.02
0.00 0.00 0.00 0.00 0.00 0.01 0.02 0.04 0.05 0.03 0.02 0.02 0.02 0.01 0.01 0.00 0.01 0.02 0.02 0.01 0.00 0.00 0.00 0.00 0.01 0.01 0.01 0.03 0.04 0.03 0.02 0.03 0.09 0.13 0.15 0.22 0.19 0.07 0.04 0.02 0.02 0.02 0.03
0.00 0.00 0.00 0.00 0.00 0.02 0.03 0.06 0.07 0.05 0.03 0.03 0.02 0.02 0.01 0.01 0.01 0.02 0.02 0.01 0.00 0.00 0.00 0.00 0.00 0.01 0.01 0.02 0.03 0.02 0.01 0.02 0.06 0.06 0.10 0.14 0.09 0.03 0.01 0.01 0.01 0.02 0.04
0.00 0.00 0.00 0.00 0.00 0.00 0.01 0.03 0.10 0.10 0.07 0.04 0.03 0.02 0.01 0.00 0.00 0.01 0.01 0.01 0.00 0.00 0.00 0.00 0.00 0.00 0.00 0.01 0.01 0.01 0.00 0.01 0.01 0.02 0.05 0.06 0.03 0.01 0.01 0.01 0.01 0.02 0.04
0.00 0.00 0.00 0.00 0.00 0.01 0.01 0.01 0.06 0.11 0.13 0.06 0.03 0.01 0.00 0.00 0.00 0.00 0.00 0.00 0.00 0.00 0.00 0.00 0.00 0.00 0.00 0.00 0.00 0.00 0.00 0.00 0.00 0.00 0.01 0.01 0.01 0.00 0.01 0.01 0.01 0.01 0.02
0.00 0.00 0.00 0.00 0.01 0.02 0.03 0.02 0.03 0.07 0.09 0.06 0.02 0.01 0.00 0.02 0.02 0.01 0.00 0.00 0.00 0.00 0.00 0.00 0.00 0.00 0.00 0.00 0.00 0.00 0.00 0.00 0.00 0.00 0.00 0.00 0.00 0.00 0.00 0.00 0.00 0.00 0.01
0.00 0.00 0.00 0.00 0.01 0.01 0.03 0.07 0.05 0.08 0.06 0.05 0.08 0.03 0.06 0.11 0.07 0.01 0.00 0.00 0.00 0.00 0.00 0.00 0.00 0.00 0.00 0.00 0.00 0.00 0.00 0.00 0.00 0.00 0.00 0.00 0.00 0.00 0.00 0.00 0.00 0.00 0.00
0.00 0.00 0.00 0.00 0.00 0.01 0.04 0.07 0.10 0.17 0.17 0.23 0.22 0.09 0.08 0.09 0.04 0.00 0.00 0.00 0.00 0.00 0.00 0.00 0.00 0.00 0.00 0.00 0.00 0.00 0.00 0.00 0.00 0.00 0.00 0.00 0.00 0.00 0.00 0.00 0.00 0.00 0.00
0.00 0.00 0.00 0.00 0.00 0.00 0.02 0.06 0.09 0.12 0.21 0.26 0.15 0.02 0.01 0.03 0.02 0.00 0.00 0.00 0.00 0.00 0.00 0.00 0.00 0.00 0.00 0.00 0.00 0.00 0.00 0.00 0.00 0.00 0.01 0.00 0.00 0.00 0.00 0.00 0.00 0.00 0.00
0.00 0.00 0.00 0.00 0.00 0.00 0.02 0.04 0.04 0.07 0.11 0.12 0.11 0.02 0.01 0.00 0.01 0.00 0.00 0.00 0.00 0.00 0.00 0.00 0.00 0.00 0.00 0.00 0.00 0.00 0.00 0.00 0.00 0.00 0.01 0.00 0.00 0.00 0.00 0.00 0.00 0.00 0.00
0.00 0.00 0.00 0.00 0.00 0.00 0.00 0.01 0.03 0.04 0.05 0.07 0.06 0.01 0.02 0.00 0.00 0.00 0.00 0.00 0.00 0.00 0.00 0.00 0.00 0.00 0.00 0.00 0.00 0.00 0.00 0.00 0.00 0.00 0.00 0.01 0.00 0.00 0.00 0.00 0.00 0.00 0.00
0.00 0.00 0.00 0.00 0.00 0.00 0.00 0.00 0.02 0.01 0.02 0.02 0.03 0.01 0.03 0.02 0.00 0.00 0.00 0.00 0.00 0.00 0.00 0.00 0.00 0.00 0.00 0.00 0.00 0.00 0.00 0.00 0.00 0.00 0.00 0.01 0.01 0.00 0.00 0.00 0.00 0.01 0.00
0.01 0.00 0.00 0.00 0.00 0.00 0.00 0.00 0.01 0.00 0.02 0.03 0.03 0.01 0.01 0.01 0.00 0.00 0.00 0.00 0.00 0.00 0.00 0.00 0.00 0.00 0.00 0.00 0.00 0.00 0.00 0.00 0.00 0.00 0.00 0.00 0.00 0.01 0.01 0.00 0.00 0.01 0.01
0.02 0.01 0.01 0.00 0.00 0.00 0.00 0.00 0.00 0.01 0.03 0.03 0.02 0.01 0.01 0.01 0.00 0.02 0.02 0.00 0.00 0.00 0.00 0.00 0.00 0.00 0.00 0.01 0.00 0.00 0.00 0.00 0.00 0.00 0.00 0.00 0.00 0.01 0.01 0.00 0.00 0.01 0.01
0.05 0.03 0.01 0.01 0.01 0.00 0.01 0.02 0.04 0.04 0.03 0.02 0.02 0.02 0.01 0.01 0.01 0.04 0.02 0.00 0.00 0.00 0.01 0.00 0.02 0.02 0.02 0.01 0.00 0.00 0.00 0.00 0.00 0.00 0.00 0.00 0.00 0.00 0.00 0.01 0.04 0.02 0.01
0.03 0.02 0.02 0.01 0.01 0.01 0.03 0.03 0.04 0.05 0.06 0.06 0.05 0.04 0.05 0.03 0.03 0.04 0.04 0.03 0.03 0.03 0.01 0.02 0.08 0.10 0.08 0.02 0.02 0.03 0.01 0.00 0.00 0.00 0.00 0.00 0.00 0.00 0.00 0.00 0.02 0.03 0.01
0.01 0.01 0.01 0.01 0.02 0.03 0.03 0.02 0.04 0.09 0.12 0.13 0.11 0.09 0.07 0.04 0.03 0.05 0.08 0.11 0.10 0.09 0.07 0.07 0.15 0.18 0.14 0.06 0.08 0.13 0.10 0.07 0.02 0.00 0.00 0.00 0.00 0.00 0.00 0.00 0.00 0.01 0.01
0.01 0.01 0.02 0.02 0.04 0.07 0.11 0.18 0.24 0.28 0.23 0.16 0.11 0.09 0.07 0.06 0.06 0.09 0.14 0.17 0.13 0.14 0.13 0.14 0.17 0.20 0.15 0.08 0.07 0.14 0.15 0.15 0.13 0.03 0.00 0.00 0.00 0.00 0.00 0.00 0.00 0.01 0.01
0.00 0.00 0.01 0.02 0.05 0.11 0.26 0.47 0.60 0.53 0.36 0.20 0.13 0.11 0.08 0.08 0.09 0.12 0.13 0.15 0.16 0.16 0.17 0.14 0.10 0.15 0.16 0.09 0.09 0.10 0.09 0.12 0.15 0.13 0.06 0.01 0.00 0.00 0.00 0.00 0.00 0.00 0.00
0.01 0.01 0.01 0.02 0.07 0.15 0.33 0.58 0.76 0.82 0.71 0.51 0.35 0.22 0.16 0.14 0.15 0.15 0.16 0.17 0.16 0.17 0.17 0.14 0.11 0.12 0.12 0.09 0.10 0.10 0.09 0.09 0.07 0.14 0.16 0.08 0.02 0.00 0.00 0.00 0.00 0.00 0.00
0.01 0.02 0.02 0.04 0.08 0.14 0.26 0.43 0.60 0.75 0.80 0.72 0.57 0.42 0.29 0.22 0.20 0.21 0.21 0.20 0.19 0.18 0.17 0.14 0.09 0.08 0.07 0.07 0.06 0.05 0.06 0.06 0.07 0.12 0.15 0.15 0.09 0.02 0.00 0.00 0.00 0.00 0.00
MSLP
1010.37 1010.26 1010.26 1010.41 1010.71 1011.11 1011.55 1011.95 1012.26 1012.46 1012.55 1012.59 1012.63 1012.73 1012.91 1013.18 1013.51 1013.86 1014.19 1014.44 1014.60 1014.68 1014.70 1014.68 1014.67 1014.68 1014.72 1014.79 1014.87 1014.94 1015.00 1015.05 1015.09 1015.14 1015.19 1015.26 1015.35 1015.43 1015.50 1015.55 1015.56 1015.55 1015.53
1010.16 1010.15 1010.26 1010.54 1010.94 1011.42 1011.89 1012.28 1012.55 1012.70 1012.74 1012.74 1012.77 1012.87 1013.08 1013.38 1013.74 1014.11 1014.43 1014.66 1014.80 1014.84 1014.83 1014.80 1014.78 1014.78 1014.81 1014.86 1014.91 1014.95 1014.99 1015.01 1015.05 1015.11 1015.21 1015.34 1015.48 1015.62 1015.71 1015.76 1015.75 1015.71 1015.64
1009.86 1009.96 1010.20 1010.60 1011.11 1011.67 1012.18 1012.58 1012.83 1012.94 1012.95 1012.93 1012.95 1013.06 1013.27 1013.58 1013.93 1014.27 1014.55 1014.74 1014.83 1014.85 1014.83 1014.80 1014.79 1014.81 1014.86 1014.91 1014.94 1014.96 1014.96 1014.97 1015.00 1015.09 1015.23 1015.41 1015.61 1015.79 1015.92 1015.98 1015.96 1015.88 1015.79
1009.52 1009.74 1010.10 1010.62 1011.23 1011.85 1012.40 1012.82 1013.07 1013.17 1013.17 1013.15 1013.18 1013.29 1013.51 1013.80 1014.11 1014.40 1014.62 1014.75 1014.79 1014.78 1014.75 1014.75 1014.78 1014.84 1014.92 1014.98 1015.01 1015.01 1014.98 1014.97 1014.99 1015.09 1015.26 1015.49 1015.74 1015.97 1016.13 1016.20 1016.18 1016.09 1015.97
1009.21 1009.52 1009.99 1010.61 1011.30 1011.98 1012.56 1012.99 1013.24 1013.35 1013.37 1013.37 1013.42 1013.55 1013.77 1014.04 1014.31 1014.54 1014.69 1014.75 1014.75 1014.72 1014.71 1014.74 1014.81 1014.92 1015.04 1015.12 1015.15 1015.13 1015.08 1015.04 1015.05 1015.15 1015.33 1015.59 1015.88 1016.14 1016.33 1016.41 1016.40 1016.31 1016.19
1008.98 1009.37 1009.92 1010.61 1011.35 1012.06 1012.65 1013.09 1013.35 1013.47 1013.51 1013.55 1013.64 1013.81 1014.04 1014.31 1014.55 1014.73 1014.83 1014.84 1014.80 1014.76 1014.76 1014.83 1014.95 1015.10 1015.24 1015.34 1015.36 1015.32 1015.25 1015.18 1015.18 1015.27 1015.46 1015.73 1016.03 1016.31 1016.51 1016.60 1016.59 1016.50 1016.39
1008.88 1009.32 1009.92 1010.64 1011.40 1012.11 1012.69 1013.11 1013.37 1013.51 1013.59 1013.68 1013.82 1014.03 1014.30 1014.58 1014.81 1014.97 1015.03 1015.02 1014.97 1014.93 1014.95 1015.03 1015.18 1015.36 1015.52 1015.61 1015.62 1015.56 1015.46 1015.38 1015.35 1015.43 1015.62 1015.89 1016.19 1016.46 1016.65 1016.75 1016.74 1016.66 1016.57
1008.91 1009.38 1010.00 1010.72 1011.45 1012.13 1012.68 1013.07 1013.32 1013.47 1013.58 1013.72 1013.92 1014.19 1014.50 1014.81 1015.06 1015.22 1015.28 1015.27 1015.22 1015.20 1015.23 1015.33 1015.49 1015.66 1015.80 1015.88 1015.86 1015.78 1015.66 1015.56 1015.53 1015.61 1015.79 1016.05 1016.34 1016.59 1016.77 1016.84 1016.83 1016.76 1016.69
1009.03 1009.51 1010.11 1010.80 1011.50 1012.12 1012.62 1012.97 1013.20 1013.35 1013.49 1013.67 1013.93 1014.25 1014.61 1014.95 1015.23 1015.42 1015.51 1015.52 1015.50 1015.49 1015.53 1015.63 1015.77 1015.91 1016.02 1016.06 1016.01 1015.90 1015.78 1015.68 1015.66 1015.75 1015.94 1016.19 1016.46 1016.69 1016.84 1016.90 1016.87 1016.81 1016.75
1009.15 1009.62 1010.20 1010.86 1011.50 1012.06 1012.50 1012.81 1013.02 1013.17 1013.34 1013.55 1013.84 1014.21 1014.60 1014.98 1015.29 1015.51 1015.63 1015.68 1015.70 1015.71 1015.76 1015.85 1015.95 1016.05 1016.10 1016.09 1016.01 1015.89 1015.77 1015.70 1015.71 1015.83 1016.04 1016.30 1016.56 1016.77 1016.89 1016.93 1016.89 1016.82 1016.78
1009.20 1009.65 1010.20 1010.81 1011.40 1011.91 1012.31 1012.60 1012.80 1012.96 1013.14 1013.37 1013.69 1014.06 1014.47 1014.86 1015.20 1015.45 1015.61 1015.70 1015.75 1015.79 1015.85 1015.92 1015.99 1016.03 1016.02 1015.96 1015.86 1015.74 1015.64 1015.62 1015.69 1015.86 1016.10 1016.38 1016.64 1016.83 1016.94 1016.95 1016.90 1016.83 1016.79
1009.09 1009.52 1010.05 1010.63 1011.18 1011.67 1012.05 1012.34 1012.55 1012.73 1012.92 1013.17 1013.48 1013.85 1014.24 1014.62 1014.95 1015.21 1015.40 1015.53 1015.62 1015.70 1015.76 1015.82 1015.86 1015.85 1015.80 1015.71 1015.59 1015.48 1015.43 1015.46 1015.60 1015.83 1016.13 1016.43 1016.70 1016.89 1016.98 1016.98 1016.92 1016.85 1016.82
1008.83 1009.24 1009.74 1010.29 1010.82 1011.30 1011.70 1012.01 1012.27 1012.49 1012.71 1012.97 1013.27 1013.60 1013.95 1014.28 1014.58 1014.83 1015.03 1015.19 1015.32 1015.44 1015.53 1015.59 1015.61 1015.59 1015.51 1015.39 1015.28 1015.20 1015.19 1015.29 1015.49 1015.79 1016.13 1016.46 1016.74 1016.93 1017.02 1017.02 1016.97 1016.91 1016.88
1008.45 1008.81 1009.28 1009.80 1010.33 1010.83 1011.27 1011.64 1011.95 1012.24 1012.50 1012.77 1013.06 1013.34 1013.62 1013.89 1014.14 1014.36 1014.56 1014.74 1014.92 1015.07 1015.21 1015.30 1015.33 1015.31 1015.23 1015.12 1015.03 1014.98 1015.02 1015.17 1015.42 1015.76 1016.13 1016.47 1016.76 1016.95 1017.04 1017.05 1017.02 1016.98 1016.97
1008.02 1008.33 1008.75 1009.24 1009.75 1010.27 1010.76 1011.20 1011.61 1011.97 1012.29 1012.59 1012.85 1013.09 1013.30 1013.50 1013.68 1013.86 1014.05 1014.26 1014.47 1014.69 1014.88 1015.03 1015.10 1015.11 1015.06 1014.98 1014.91 1014.89 1014.96 1015.14 1015.41 1015.76 1016.12 1016.46 1016.74 1016.92 1017.01 1017.04 1017.03 1017.03 1017.05
1007.66 1007.89 1008.23 1008.66 1009.15 1009.67 1010.19 1010.71 1011.20 1011.65 1012.04 1012.37 1012.64 1012.84 1013.00 1013.13 1013.25 1013.40 1013.58 1013.81 1014.08 1014.36 1014.63 1014.84 1014.99 1015.05 1015.05 1015.01 1014.97 1014.98 1015.06 1015.23 1015.49 1015.80 1016.12 1016.42 1016.65 1016.81 1016.91 1016.95 1016.99 1017.03 1017.10
1007.46 1007.59 1007.82 1008.15 1008.57 1009.06 1009.60 1010.17 1010.73 1011.26 1011.72 1012.10 1012.39 1012.58 1012.71 1012.80 1012.89 1013.01 1013.20 1013.46 1013.79 1014.14 1014.49 1014.79 1015.01 1015.15 1015.20 1015.21 1015.20 1015.22 1015.29 1015.43 1015.64 1015.88 1016.12 1016.34 1016.51 1016.63 1016.71 1016.78 1016.85 1016.95 1017.09
1007.50 1007.50 1007.59 1007.79 1008.10 1008.51 1009.02 1009.59 1010.19 1010.78 1011.31 1011.75 1012.07 1012.29 1012.42 1012.51 1012.59 1012.72 1012.93 1013.23 1013.61 1014.03 1014.45 1014.83 1015.14 1015.35 1015.47 1015.52 1015.54 1015.56 1015.61 1015.71 1015.83 1015.97 1016.11 1016.23 1016.32 1016.39 1016.45 1016.52 1016.63 1016.79 1016.99
1007.79 1007.64 1007.57 1007.61 1007.77 1008.06 1008.48 1009.02 1009.62 1010.24 1010.82 1011.32 1011.70 1011.97 1012.14 1012.25 1012.37 1012.52 1012.77 1013.11 1013.53 1014.01 1014.50 1014.94 1015.31 1015.59 1015.76 1015.86 1015.91 1015.93 1015.96 1015.99 1016.04 1016.08 1016.11 1016.12 1016.12 1016.13 1016.15 1016.23 1016.37 1016.58 1016.83
1008.30 1008.01 1007.78 1007.63 1007.62 1007.75 1008.05 1008.50 1009.07 1009.68 1010.30 1010.84 1011.29 1011.63 1011.87 1012.04 1012.21 1012.41 1012.70 1013.07 1013.53 1014.04 1014.56 1015.05 1015.46 1015.78 1016.00 1016.14 1016.22 1016.25 1016.27 1016.26 1016.24 1016.20 1016.14 1016.05 1015.97 1015.91 1015.90 1015.97 1016.12 1016.36 1016.66
1008.97 1008.57 1008.19 1007.87 1007.67 1007.63 1007.78 1008.12 1008.61 1009.19 1009.81 1010.40 1010.91 1011.32 1011.63 1011.89 1012.12 1012.38 1012.71 1013.10 1013.57 1014.08 1014.60 1015.09 1015.52 1015.86 1016.12 1016.29 1016.41 1016.47 1016.49 1016.48 1016.43 1016.34 1016.21 1016.06 1015.91 1015.79 1015.75 1015.79 1015.94 1016.19 1016.50
1009.75 1009.27 1008.77 1008.30 1007.94 1007.74 1007.73 1007.94 1008.33 1008.86 1009.46 1010.07 1010.62 1011.10 1011.50 1011.83 1012.13 1012.43 1012.78 1013.18 1013.62 1014.11 1014.59 1015.05 1015.46 1015.80 1016.07 1016.28 1016.44 1016.55 1016.61 1016.63 1016.59 1016.49 1016.34 1016.15 1015.97 1015.81 1015.73 1015.74 1015.87 1016.10 1016.40
1010.57 1010.06 1009.48 1008.92 1008.43 1008.10 1007.96 1008.04 1008.33 1008.79 1009.35 1009.95 1010.52 1011.05 1011.50 1011.88 1012.23 1012.56 1012.90 1013.27 1013.67 1014.09 1014.51 1014.91 1015.27 1015.59 1015.87 1016.11 1016.32 1016.49 1016.63 1016.71 1016.72 1016.66 1016.53 1016.35 1016.15 1015.97 1015.85 1015.83 1015.91 1016.10 1016.37
1011.40 1010.89 1010.30 1009.69 1009.13 1008.71 1008.47 1008.45 1008.65 1009.02 1009.52 1010.09 1010.66 1011.19 1011.67 1012.07 1012.43 1012.75 1013.07 1013.39 1013.71 1014.04 1014.37 1014.69 1014.99 1015.27 1015.55 1015.82 1016.08 1016.33 1016.55 1016.72 1016.81 1016.82 1016.74 1016.59 1016.41 1016.22 1016.07 1016.00 1016.03 1016.16 1016.36
1012.21 1011.75 1011.18 1010.57 1010.00 1009.54 1009.24 1009.15 1009.27 1009.56 1010.00 1010.51 1011.03 1011.53 1011.98 1012.37 1012.70 1012.99 1013.25 1013.50 1013.73 1013.97 1014.19 1014.42 1014.65 1014.90 1015.16 1015.46 1015.77 1016.09 1016.40 1016.66 1016.85 1016.94 1016.93 1016.83 1016.67 1016.48 1016.31 1016.20 1016.16 1016.22 1016.35
1013.00 1012.59 1012.08 1011.52 1010.98 1010.52 1010.21 1010.08 1010.13 1010.36 1010.71 1011.14 1011.59 1012.02 1012.41 1012.74 1013.01 1013.23 1013.42 1013.58 1013.72 1013.86 1013.99 1014.14 1014.30 1014.51 1014.76 1015.07 1015.42 1015.80 1016.19 1016.53 1016.81 1016.98 1017.04 1016.99 1016.86 1016.67 1016.48 1016.33 1016.23 1016.22 1016.27
Thickness
5821 5819 5813 5810 5807 5804 5802 5799 5795 5792 5789 5787 5785 5782 5780 5778 5777 5775 5774 5772 5771 5770 5769 5769 5769 5769 5769 5769 5769 5770 5771 5773 5774 5775 5776 5777 5778 5778 5779 5780 5781 5781 5781
5827 5820 5814 5811 5807 5804 5801 5799 5796 5793 5790 5787 5785 5783 5780 5778 5776 5774 5773 5771 5770 5769 5768 5767 5767 5767 5767 5767 5767 5767 5768 5770 5772 5773 5774 5775 5775 5776 5777 5778 5778 5778 5779
5828 5820 5814 5811 5807 5804 5801 5798 5796 5793 5790 5788 5785 5783 5780 5778 5775 5773 5771 5770 5769 5768 5767 5766 5766 5766 5766 5766 5766 5766 5767 5768 5770 5771 5771 5771 5772 5773 5774 5775 5775 5776 5776
5829 5821 5816 5811 5808 5804 5801 5798 5796 5793 5791 5788 5786 5783 5781 5778 5775 5773 5771 5769 5768 5767 5766 5765 5765 5764 5764 5764 5764 5765 5766 5767 5768 5768 5768 5768 5769 5769 5771 5772 5772 5773 5773
5829 5823 5816 5811 5808 5804 5801 5799 5796 5793 5791 5789 5786 5784 5781 5778 5776 5773 5771 5769 5767 5766 5765 5764 5763 5763 5763 5763 5763 5764 5764 5765 5766 5767 5767 5766 5766 5766 5768 5769 5769 5770 5770
5829 5822 5815 5811 5807 5804 5802 5799 5796 5794 5791 5789 5787 5785 5782 5780 5777 5774 5771 5768 5766 5765 5764 5763 5762 5762 5762 5762 5762 5762 5763 5765 5766 5767 5767 5766 5765 5764 5765 5766 5767 5767 5767
5828 5821 5814 5810 5807 5804 5802 5799 5797 5794 5792 5790 5788 5785 5783 5781 5778 5775 5772 5769 5766 5764 5763 5762 5762 5761 5761 5761 5761 5761 5762 5763 5765 5767 5766 5764 5764 5763 5764 5765 5765 5766 5766
5829 5822 5814 5809 5806 5804 5801 5799 5797 5794 5792 5790 5788 5786 5784 5782 5779 5776 5773 5770 5767 5765 5763 5762 5761 5761 5760 5760 5760 5760 5761 5762 5765 5766 5765 5764 5763 5763 5763 5763 5764 5764 5764
5831 5823 5814 5810 5806 5804 5802 5799 5797 5795 5792 5790 5787 5785 5784 5782 5779 5777 5774 5771 5768 5766 5763 5762 5761 5760 5759 5759 5759 5760 5761 5763 5765 5766 5765 5763 5762 5762 5762 5762 5762 5762 5763
5831 5825 5818 5813 5809 5805 5802 5800 5797 5795 5793 5790 5787 5785 5783 5781 5779 5777 5774 5772 5770 5767 5765 5763 5761 5760 5759 5759 5759 5760 5761 5763 5765 5766 5764 5762 5761 5761 5761 5761 5761 5761 5761
5829 5827 5823 5818 5814 5809 5805 5801 5797 5795 5792 5790 5787 5785 5783 5781 5779 5777 5776 5773 5771 5768 5766 5764 5763 5761 5760 5759 5760 5760 5761 5763 5765 5765 5762 5761 5760 5759 5759 5759 5759 5759 5760
5824 5825 5825 5820 5815 5811 5808 5802 5798 5795 5792 5790 5788 5785 5784 5783 5782 5779 5775 5773 5771 5769 5767 5766 5764 5763 5761 5761 5761 5761 5761 5764 5766 5764 5759 5759 5759 5759 5758 5757 5757 5757 5758
5826 5825 5824 5821 5817 5812 5807 5802 5799 5796 5793 5791 5789 5787 5785 5784 5782 5779 5775 5772 5771 5769 5768 5767 5766 5766 5765 5765 5765 5764 5764 5765 5765 5761 5757 5757 5757 5757 5757 5757 5756 5756 5756
5827 5825 5825 5822 5817 5813 5809 5804 5799 5796 5793 5791 5789 5788 5787 5786 5785 5782 5779 5774 5773 5771 5770 5769 5769 5770 5771 5770 5769 5768 5766 5764 5762 5759 5756 5756 5756 5756 5757 5757 5756 5755 5755
5827 5825 5825 5823 5819 5814 5809 5804 5800 5796 5793 5792 5790 5790 5790 5788 5786 5786 5783 5778 5776 5775 5773 5772 5773 5773 5772 5771 5768 5767 5765 5763 5761 5758 5755 5755 5754 5754 5755 5755 5754 5754 5753
5828 5827 5827 5823 5820 5815 5809 5803 5801 5798 5794 5793 5791 5790 5790 5788 5786 5784 5783 5779 5778 5776 5773 5772 5773 5772 5770 5768 5765 5763 5761 5761 5760 5758 5755 5753 5752 5752 5752 5752 5752 5752 5751
5828 5829 5827 5824 5821 5816 5811 5806 5803 5799 5795 5793 5791 5790 5789 5787 5784 5782 5780 5777 5776 5775 5772 5770 5771 5770 5767 5765 5762 5761 5759 5757 5756 5756 5754 5752 5749 5748 5748 5748 5748 5748 5748
5824 5825 5826 5825 5820 5816 5812 5807 5803 5799 5796 5793 5790 5788 5787 5785 5782 5779 5777 5775 5774 5772 5770 5766 5765 5763 5761 5760 5758 5757 5757 5754 5753 5754 5753 5751 5748 5745 5743 5743 5742 5742 5742
5816 5819 5820 5821 5818 5814 5811 5806 5802 5799 5795 5792 5789 5786 5784 5782 5779 5776 5773 5770 5769 5767 5765 5763 5759 5757 5755 5754 5754 5753 5753 5752 5751 5751 5751 5750 5747 5744 5740 5738 5737 5736 5736
5809 5812 5814 5815 5815 5812 5809 5804 5799 5795 5792 5789 5786 5783 5780 5777 5774 5771 5768 5764 5763 5760 5757 5756 5753 5752 5749 5749 5749 5748 5748 5749 5748 5747 5746 5745 5744 5742 5738 5735 5733 5731 5731
5798 5801 5804 5806 5809 5808 5803 5797 5791 5786 5784 5783 5781 5779 5775 5772 5769 5765 5761 5757 5755 5751 5749 5749 5746 5743 5741 5742 5738 5736 5740 5743 5743 5743 5741 5740 5740 5739 5736 5733 5730 5728 5725
5779 5785 5791 5795 5799 5802 5802 5798 5792 5785 5780 5778 5775 5772 5769 5765 5762 5760 5755 5750 5747 5743 5741 5740 5738 5734 5734 5735 5729 5723 5720 5724 5732 5738 5737 5734 5732 5733 5731 5731 5728 5725 5722
5762 5768 5774 5780 5787 5792 5795 5794 5788 5781 5773 5769 5765 5762 5761 5759 5756 5752 5749 5744 5740 5737 5733 5732 5731 5727 5724 5727 5728 5721 5712 5709 5717 5725 5730 5729 5727 5727 5726 5725 5724 5722 5720
5749 5755 5760 5766 5773 5780 5785 5783 5778 5770 5761 5759 5756 5753 5752 5751 5748 5745 5741 5739 5735 5731 5729 5727 5728 5726 5723 5720 5722 5723 5721 5717 5709 5707 5717 5722 5723 5721 5720 5720 5719 5717 5715
5737 5741 5746 5752 5758 5764 5770 5771 5768 5761 5754 5749 5745 5741 5739 5739 5738 5736 5733 5731 5728 5725 5723 5723 5723 5723 5721 5718 5716 5716 5716 5714 5712 5703 5699 5706 5712 5716 5715 5714 5713 5711 5710
5724 5728 5733 5738 5742 5747 5751 5752 5750 5745 5741 5735 5732 5727 5725 5725 5724 5724 5722 5720 5719 5718 5718 5717 5718 5718 5717 5716 5714 5713 5710 5707 5704 5701 5695 5695 5697 5705 5709 5708 5707 5706 5704